• In Deutschland
  • Länderverzeichnis
  • Für 7 Tage
  • Wassertemperatur
  • Satellitenkarten
  • Wetterkarte
  • Widgets
  • user-avatar
    Anmelden

    Stündliche Wetter Wlora

    Heute, 23 März, Donnerstag

    Zeit Temperatur Niederschläge Wind Luftdruck Luftfeuchtigkeit
    00:00 +14°C° 0 mm 1 m/S 761 mmHg 84%
    01:00 +14°C° 0 mm 1 m/S 761 mmHg 82%
    02:00 +14°C° 0 mm 1 m/S 761 mmHg 82%
    03:00 +14°C° 0 mm 2 m/S 761 mmHg 81%
    04:00 +14°C° 0 mm 2 m/S 761 mmHg 81%
    05:00 +15°C° 0 mm 2 m/S 762 mmHg 77%
    06:00 +16°C° 0 mm 2 m/S 762 mmHg 73%
    07:00 +18°C° 0 mm 1 m/S 762 mmHg 69%
    08:00 +20°C° 0 mm 1 m/S 762 mmHg 63%
    09:00 +21°C° 0 mm 1 m/S 762 mmHg 57%
    10:00 +23°C° 0 mm 1 m/S 763 mmHg 51%
    11:00 +24°C° 0 mm 1 m/S 763 mmHg 50%
    12:00 +24°C° 0 mm 2 m/S 763 mmHg 49%
    13:00 +24°C° 0 mm 2 m/S 763 mmHg 48%
    14:00 +23°C° 0 mm 2 m/S 763 mmHg 51%
    15:00 +23°C° 0 mm 2 m/S 763 mmHg 53%
    16:00 +21°C° 0 mm 2 m/S 763 mmHg 56%
    17:00 +20°C° 0 mm 1 m/S 763 mmHg 63%
    18:00 +19°C° 0 mm 1 m/S 763 mmHg 69%
    19:00 +16°C° 0 mm 1 m/S 764 mmHg 76%
    20:00 +16°C° 0 mm 1 m/S 764 mmHg 78%
    21:00 +15°C° 0 mm 1 m/S 764 mmHg 81%
    22:00 +15°C° 0 mm 1 m/S 765 mmHg 84%
    23:00 +15°C° 0 mm 1 m/S 765 mmHg 84%

    Morgen, 24 März, Freitag

    Zeit Temperatur Niederschläge Wind Luftdruck Luftfeuchtigkeit
    00:00 +14°C° 0 mm 1 m/S 765 mmHg 84%
    01:00 +14°C° 0 mm 1 m/S 765 mmHg 84%
    02:00 +14°C° 0 mm 1 m/S 765 mmHg 83%
    03:00 +14°C° 0 mm 1 m/S 765 mmHg 82%
    04:00 +14°C° 0 mm 1 m/S 765 mmHg 81%
    05:00 +15°C° 0 mm 2 m/S 765 mmHg 77%
    06:00 +16°C° 0 mm 2 m/S 765 mmHg 73%
    07:00 +17°C° 0 mm 2 m/S 765 mmHg 70%
    08:00 +19°C° 0 mm 2 m/S 765 mmHg 63%
    09:00 +21°C° 0 mm 2 m/S 766 mmHg 57%
    10:00 +24°C° 0 mm 2 m/S 766 mmHg 50%
    11:00 +24°C° 0 mm 2 m/S 766 mmHg 49%
    12:00 +25°C° 0 mm 3 m/S 765 mmHg 48%
    13:00 +25°C° 0 mm 4 m/S 765 mmHg 46%
    14:00 +23°C° 0 mm 4 m/S 765 mmHg 48%
    15:00 +23°C° 0 mm 4 m/S 765 mmHg 50%
    16:00 +22°C° 0 mm 4 m/S 765 mmHg 52%
    17:00 +20°C° 0 mm 4 m/S 765 mmHg 59%
    18:00 +18°C° 0 mm 3 m/S 765 mmHg 65%
    19:00 +16°C° 0 mm 3 m/S 765 mmHg 72%
    20:00 +16°C° 0 mm 3 m/S 765 mmHg 72%
    21:00 +14°C° 0 mm 3 m/S 765 mmHg 71%
    22:00 +15°C° 0 mm 2 m/S 766 mmHg 71%
    23:00 +15°C° 0 mm 2 m/S 766 mmHg 71%

    übermorgen, 25 März, Samstag

    Zeit Temperatur Niederschläge Wind Luftdruck Luftfeuchtigkeit
    00:00 +15°C° 0 mm 2 m/S 765 mmHg 71%
    01:00 +15°C° 0 mm 2 m/S 765 mmHg 71%
    02:00 +14°C° 0 mm 2 m/S 765 mmHg 71%
    03:00 +13°C° 0 mm 3 m/S 765 mmHg 72%
    04:00 +13°C° 0 mm 3 m/S 765 mmHg 72%
    05:00 +14°C° 0 mm 3 m/S 765 mmHg 70%
    06:00 +16°C° 0 mm 3 m/S 765 mmHg 68%
    07:00 +18°C° 0 mm 3 m/S 765 mmHg 65%
    08:00 +19°C° 0 mm 3 m/S 765 mmHg 60%
    09:00 +21°C° 0 mm 3 m/S 765 mmHg 55%
    10:00 +22°C° 0 mm 3 m/S 765 mmHg 50%
    11:00 +24°C° 0 mm 3 m/S 765 mmHg 50%
    12:00 +23°C° 0 mm 4 m/S 765 mmHg 50%
    13:00 +23°C° 0 mm 4 m/S 765 mmHg 51%
    14:00 +22°C° 0 mm 4 m/S 764 mmHg 53%
    15:00 +22°C° 0 mm 4 m/S 764 mmHg 55%
    16:00 +21°C° 0 mm 3 m/S 763 mmHg 58%
    17:00 +19°C° 0 mm 3 m/S 764 mmHg 66%
    18:00 +17°C° 0 mm 2 m/S 764 mmHg 74%
    19:00 +15°C° 0 mm 2 m/S 764 mmHg 83%
    20:00 +15°C° 0 mm 2 m/S 764 mmHg 84%
    21:00 +14°C° 0 mm 1 m/S 764 mmHg 85%
    22:00 +14°C° 0 mm 1 m/S 764 mmHg 86%
    23:00 +14°C° 0 mm 1 m/S 764 mmHg 84%

    26 März, Sonntag

    Zeit Temperatur Niederschläge Wind Luftdruck Luftfeuchtigkeit
    00:00 +13°C° 0 mm 2 m/S 763 mmHg 83%
    01:00 +13°C° 0 mm 2 m/S 763 mmHg 82%
    02:00 +13°C° 0 mm 2 m/S 763 mmHg 82%
    03:00 +12°C° 0 mm 1 m/S 763 mmHg 82%
    04:00 +12°C° 0 mm 1 m/S 762 mmHg 82%
    05:00 +14°C° 0 mm 2 m/S 762 mmHg 77%
    06:00 +15°C° 0 mm 2 m/S 762 mmHg 72%
    07:00 +16°C° 0 mm 2 m/S 762 mmHg 67%
    08:00 +18°C° 0 mm 3 m/S 762 mmHg 61%
    09:00 +19°C° 0 mm 4 m/S 762 mmHg 56%
    10:00 +21°C° 0 mm 4 m/S 761 mmHg 50%
    11:00 +21°C° 0 mm 5 m/S 761 mmHg 49%
    12:00 +21°C° 0 mm 5 m/S 760 mmHg 48%
    13:00 +22°C° 0 mm 6 m/S 760 mmHg 47%
    14:00 +21°C° 0 mm 6 m/S 759 mmHg 50%
    15:00 +20°C° 0 mm 6 m/S 759 mmHg 52%
    16:00 +20°C° 0 mm 6 m/S 759 mmHg 55%
    17:00 +17°C° 0 mm 6 m/S 759 mmHg 63%
    18:00 +16°C° 0 mm 5 m/S 759 mmHg 72%
    19:00 +14°C° 0 mm 5 m/S 759 mmHg 80%
    20:00 +14°C° 0,1 mm 5 m/S 759 mmHg 82%
    21:00 +14°C° 0,1 mm 4 m/S 759 mmHg 85%
    22:00 +14°C° 0,1 mm 4 m/S 759 mmHg 87%
    23:00 +13°C° 0,1 mm 4 m/S 759 mmHg 87%

    27 März, Montag

    Zeit Temperatur Niederschläge Wind Luftdruck Luftfeuchtigkeit
    00:00 +13°C° 0,1 mm 4 m/S 759 mmHg 87%
    01:00 +13°C° 0,1 mm 4 m/S 759 mmHg 87%
    02:00 +13°C° 0,1 mm 4 m/S 759 mmHg 87%
    03:00 +12°C° 0,1 mm 3 m/S 759 mmHg 86%
    04:00 +12°C° 0,1 mm 3 m/S 759 mmHg 86%
    05:00 +13°C° 0 mm 3 m/S 759 mmHg 82%
    06:00 +13°C° 0 mm 3 m/S 759 mmHg 79%
    07:00 +14°C° 0 mm 4 m/S 759 mmHg 75%
    08:00 +17°C° 0 mm 4 m/S 759 mmHg 69%
    09:00 +18°C° 0 mm 4 m/S 760 mmHg 63%
    10:00 +19°C° 0 mm 4 m/S 760 mmHg 57%
    11:00 +20°C° 0,1 mm 4 m/S 760 mmHg 56%
    12:00 +20°C° 0,1 mm 4 m/S 760 mmHg 56%
    13:00 +20°C° 0,1 mm 3 m/S 759 mmHg 56%
    14:00 +20°C° 0,1 mm 3 m/S 759 mmHg 57%
    15:00 +19°C° 0,1 mm 2 m/S 759 mmHg 58%
    16:00 +19°C° 0,1 mm 2 m/S 759 mmHg 59%
    17:00 +17°C° 0 mm 2 m/S 759 mmHg 67%
    18:00 +15°C° 0 mm 2 m/S 760 mmHg 74%
    19:00 +14°C° 0 mm 2 m/S 760 mmHg 81%
    20:00 +13°C° 0 mm 2 m/S 760 mmHg 81%
    21:00 +13°C° 0 mm 2 m/S 760 mmHg 80%
    22:00 +12°C° 0 mm 2 m/S 761 mmHg 80%
    23:00 +12°C° 0 mm 1 m/S 761 mmHg 76%

    28 März, Dienstag

    Zeit Temperatur Niederschläge Wind Luftdruck Luftfeuchtigkeit
    00:00 +12°C° 0 mm 1 m/S 761 mmHg 73%
    01:00 +12°C° 0 mm 1 m/S 761 mmHg 69%
    02:00 +12°C° 0 mm 1 m/S 761 mmHg 67%
    03:00 +12°C° 0 mm 1 m/S 761 mmHg 66%
    04:00 +11°C° 0 mm 1 m/S 760 mmHg 64%
    05:00 +13°C° 0 mm 1 m/S 761 mmHg 62%
    06:00 +14°C° 0 mm 1 m/S 761 mmHg 59%
    07:00 +15°C° 0 mm 1 m/S 761 mmHg 57%
    08:00 +18°C° 0 mm 1 m/S 761 mmHg 52%
    09:00 +19°C° 0 mm 1 m/S 761 mmHg 47%
    10:00 +20°C° 0 mm 2 m/S 761 mmHg 43%
    11:00 +20°C° 0 mm 2 m/S 761 mmHg 44%
    12:00 +20°C° 0 mm 2 m/S 761 mmHg 45%
    13:00 +20°C° 0 mm 2 m/S 761 mmHg 47%
    14:00 +19°C° 0,2 mm 2 m/S 761 mmHg 54%
    15:00 +18°C° 0,2 mm 2 m/S 761 mmHg 61%
    16:00 +17°C° 0,2 mm 2 m/S 760 mmHg 69%
    17:00 +16°C° 0,2 mm 2 m/S 761 mmHg 73%
    18:00 +15°C° 0,2 mm 2 m/S 761 mmHg 77%
    19:00 +14°C° 0,2 mm 2 m/S 761 mmHg 82%
    20:00 +13°C° 0,1 mm 3 m/S 761 mmHg 82%
    21:00 +13°C° 0,1 mm 3 m/S 761 mmHg 83%
    22:00 +13°C° 0,1 mm 3 m/S 762 mmHg 83%
    23:00 +13°C° 0 mm 3 m/S 762 mmHg 82%
    Mehr zeigen